Cloud_Cover
76 100 100 100 99 33 5 100 45 76 70 5 10 87 5 79 100 99 95 100 100 99 25 5 5 5 5 68 100 27 36 100 100
12 96 100 100 100 69 84 80 100 100 100 89 26 91 28 81 100 100 100 100 94 100 31 58 64 5 6 5 54 100 82 64 91
72 100 100 100 100 71 86 36 28 100 100 100 92 58 84 100 98 100 100 100 100 100 100 100 100 79 31 28 32 45 95 99 69
100 99 91 100 97 93 94 31 61 81 100 100 100 100 100 93 100 100 100 100 100 100 100 93 82 100 89 22 100 100 99 100 100
95 99 72 99 100 100 93 21 21 12 83 99 100 100 100 99 95 96 100 100 100 100 100 97 100 100 100 100 100 100 100 100 100
0 91 72 84 100 100 89 98 58 0 3 5 64 100 100 100 100 100 100 100 100 100 100 100 100 100 100 100 100 100 100 100 100
0 7 22 0 55 98 75 99 85 20 16 21 13 30 97 100 100 100 100 100 100 100 100 100 100 100 100 100 100 100 100 100 100
0 0 0 0 10 0 2 72 86 54 49 36 27 12 62 100 100 100 100 100 100 100 100 100 100 100 100 100 100 100 100 100 100
0 0 6 2 0 0 1 8 86 100 100 95 85 55 92 35 99 100 100 100 100 100 100 100 100 100 100 100 100 100 100 100 100
0 0 0 0 0 0 0 0 0 3 61 94 100 100 100 100 53 100 100 100 100 100 100 100 100 100 100 100 100 100 100 100 100
0 0 0 0 0 0 0 0 0 0 0 0 6 50 99 100 100 100 100 100 100 100 100 100 100 100 100 100 100 100 100 100 100
0 0 0 0 0 0 0 2 0 0 0 0 0 0 6 100 100 100 100 100 100 100 100 100 100 100 100 100 100 100 100 100 100
0 0 0 4 3 0 1 2 0 0 0 0 26 97 100 100 100 100 100 100 100 100 100 100 100 100 100 100 100 100 100 100 100
0 0 0 0 3 5 5 5 5 5 0 97 100 100 100 100 100 100 100 100 100 100 100 100 100 100 100 100 100 100 100 100 100
0 0 0 0 0 4 5 72 93 11 17 4 34 83 97 100 100 100 100 100 100 100 100 100 100 100 100 100 100 100 100 100 100
0 0 0 0 0 5 0 3 5 5 0 0 0 0 28 92 91 100 100 100 100 100 100 100 100 100 100 100 100 100 100 100 100
0 0 0 0 0 0 0 0 0 14 10 29 9 0 7 2 100 100 100 100 100 100 100 100 100 100 100 100 100 100 100 100 100
0 0 0 0 0 0 0 1 5 39 16 9 5 0 6 0 64 47 82 95 48 100 100 100 100 100 100 100 100 100 100 100 100
0 0 0 0 2 5 3 31 55 5 0 0 0 6 82 42 10 91 94 32 2 33 100 100 100 100 100 100 100 100 100 100 100
5 3 0 0 5 5 5 5 5 5 5 0 0 0 43 51 22 4 5 3 2 1 100 100 100 100 100 100 100 100 100 100 100